GFSSW_con_lsi_144.txt.gz
Lid_Strength_Index
2 2 3 3 3 4 4 4 4 4 5 4 4 4 4 3 4 8 9 7 7 2 2 7 9 9 11 12 12 13 16 17 16 14 13 11 11 10 10 11 10 9 11 9 8
2 2 2 3 3 4 4 4 4 4 5 5 5 4 4 4 6 8 4 2 3 2 8 9 10 10 13 14 13 15 17 16 13 13 12 11 12 13 12 12 12 10 9 9 9
1 2 2 2 3 4 4 4 4 5 5 5 4 4 4 4 9 8 3 2 2 4 7 8 8 11 14 14 14 16 16 13 13 13 13 14 12 12 13 14 11 12 11 9 9
2 2 2 2 3 4 4 5 4 5 5 5 5 4 4 6 14 9 2 2 2 5 7 9 10 13 14 15 14 15 13 13 12 13 13 14 13 12 13 12 11 11 10 9 9
2 2 2 2 2 3 4 5 5 5 5 5 5 4 6 9 9 8 2 4 6 8 9 10 11 12 14 13 13 14 13 12 12 12 13 12 12 12 12 11 9 9 9 10 10
1 2 2 2 2 3 4 5 5 5 5 5 5 4 8 12 8 7 7 8 8 10 10 10 11 11 12 13 14 12 12 12 11 11 12 13 12 12 11 9 9 9 10 10 10
1 2 2 2 2 3 4 4 5 5 5 6 5 5 9 11 8 9 8 9 9 9 10 9 10 11 12 13 10 11 13 12 12 12 13 11 13 13 10 8 10 10 10 10 10
0 1 2 1 2 3 3 4 5 5 5 5 4 7 12 6 8 8 9 9 8 8 9 8 8 10 11 10 11 13 14 16 12 12 12 12 15 11 9 10 11 11 11 10 10
1 0 1 2 2 3 4 5 6 6 5 4 8 10 12 4 8 7 8 8 8 8 8 7 8 11 11 14 15 14 17 16 14 12 12 13 15 11 10 10 12 12 12 12 11
2 2 1 1 2 3 5 6 6 6 5 5 6 11 9 8 8 7 8 7 9 9 9 10 11 12 13 15 17 16 16 18 16 14 13 14 14 12 12 12 13 13 13 13 13
2 2 1 1 3 4 5 6 7 7 8 9 9 11 9 8 8 9 7 8 10 11 14 11 13 15 13 12 11 13 14 15 15 12 13 14 14 13 13 13 13 13 13 13 13
2 2 2 2 3 5 6 6 8 7 9 7 8 7 8 8 10 9 7 11 11 14 13 14 15 12 10 10 12 13 14 15 13 11 13 14 14 13 13 13 13 14 14 14 13
2 2 1 2 4 6 7 6 6 7 10 8 7 7 8 7 10 11 9 10 12 13 13 15 13 10 11 12 12 14 14 14 14 13 13 14 15 14 13 12 13 13 13 13 14
2 2 1 3 5 7 8 5 6 5 14 11 9 7 6 8 11 8 8 9 12 13 13 13 11 11 12 12 12 16 12 12 13 15 18 14 20 15 14 14 14 14 14 14 14
1 1 2 2 7 7 6 5 6 4 20 10 9 5 7 9 9 10 8 10 12 12 12 14 12 13 13 13 12 14 11 12 13 15 16 15 18 17 14 15 15 14 14 14 13
0 0 1 3 5 4 4 3 4 13 19 11 9 10 11 10 10 10 10 9 9 12 13 13 11 11 12 11 11 11 12 13 13 15 20 14 15 18 17 15 14 13 13 13 13
-0 -0 1 2 5 3 3 5 13 17 10 12 11 10 11 12 11 10 11 12 14 16 15 13 13 12 11 13 11 12 14 19 19 19 19 13 16 18 14 13 14 14 13 12 12
0 0 1 1 2 2 4 9 17 12 12 8 10 10 12 12 12 11 12 14 12 12 15 17 18 13 11 12 13 13 14 18 20 20 19 13 19 17 12 12 11 11 11 12 12
0 3 4 2 1 2 6 14 14 11 9 9 9 13 13 11 12 11 12 12 11 12 16 16 16 11 11 10 11 13 15 12 16 16 20 17 15 13 12 12 12 12 12 12 12
3 4 5 2 0 4 9 12 11 8 7 9 12 11 14 13 13 14 12 10 11 10 11 12 16 12 11 11 12 11 11 16 16 21 21 18 16 19 15 14 12 15 15 14 12
4 7 4 1 1 6 12 12 10 7 6 9 11 12 11 12 11 13 12 10 9 10 10 11 13 14 12 14 15 14 14 13 13 16 19 21 20 12 14 14 14 13 15 14 12
5 9 2 1 9 8 11 9 7 8 6 8 8 10 11 10 11 12 12 10 8 10 12 11 13 16 15 11 11 12 12 13 17 17 16 18 21 10 12 13 12 13 14 16 14
6 7 2 3 12 11 9 9 7 8 8 8 9 9 9 10 13 11 10 8 9 10 11 11 13 17 16 14 12 13 12 11 12 14 16 21 20 11 12 13 11 14 14 13 14
8 11 8 5 7 9 10 11 11 7 8 7 8 8 10 11 9 11 11 8 8 9 7 8 12 15 17 15 13 14 12 11 12 16 17 18 17 13 13 15 13 14 13 15 16
9 11 9 11 10 9 9 9 11 11 7 7 9 9 10 12 11 12 10 10 9 8 9 9 14 12 12 11 11 11 12 12 13 13 15 16 15 13 14 14 16 16 14 14 15
11 11 9 11 10 10 10 11 11 10 9 10 10 9 9 11 10 12 11 11 12 10 10 10 13 12 13 11 12 12 11 11 12 12 13 13 14 10 9 11 12 13 14 15 15
5 5 9 10 11 12 11 10 10 8 8 7 8 9 10 9 7 7 7 8 9 10 11 11 13 14 15 12 12 17 14 12 12 11 12 14 13 11 11 12 13 13 13 14 14

GFSSW_con_lsi_147.txt.gz
Lid_Strength_Index
2 3 3 3 3 4 4 4 5 5 5 5 4 4 4 3 4 9 11 8 8 2 2 8 9 10 11 13 12 14 16 18 17 15 15 12 12 10 10 11 11 10 10 9 7
2 2 2 2 3 4 4 4 4 5 5 5 5 4 4 3 6 8 5 2 3 2 9 9 10 10 13 14 14 15 17 16 14 14 13 12 13 12 13 13 12 11 8 8 9
1 1 2 2 3 4 4 4 4 5 5 5 4 4 4 4 10 9 3 2 2 4 9 9 9 11 14 14 15 16 16 15 14 13 14 14 13 12 14 15 12 12 11 10 10
1 2 2 2 2 3 4 5 5 5 5 5 5 4 4 7 15 10 3 2 1 6 9 10 11 13 14 15 14 16 14 14 14 13 14 14 13 13 14 13 10 10 10 11 11
2 2 2 2 2 3 4 4 4 5 5 6 5 4 6 12 11 8 1 4 8 9 10 11 12 13 14 14 13 15 14 12 12 12 14 12 13 13 12 11 10 10 11 12 11
2 2 2 2 2 3 3 4 5 5 5 6 5 4 9 14 8 8 8 9 9 10 11 10 12 11 13 13 14 13 13 13 12 12 12 13 13 12 11 10 11 11 12 12 12
1 1 1 1 1 2 3 4 4 5 5 6 4 6 11 13 8 9 8 10 10 10 11 10 10 12 12 14 12 12 14 13 14 13 13 12 15 14 11 10 12 12 12 12 12
1 0 1 1 1 2 2 3 5 5 5 5 4 8 14 8 8 8 9 8 8 9 10 9 10 12 13 12 12 13 15 17 13 13 12 13 16 12 10 12 13 13 12 12 12
2 1 0 1 1 2 2 4 4 4 4 4 8 10 12 5 9 8 8 9 8 9 9 8 10 13 11 14 15 15 17 16 15 13 14 14 15 12 12 12 13 13 13 13 13
2 2 1 1 1 2 4 5 4 5 5 4 6 11 8 9 9 9 9 8 9 10 10 11 12 14 15 16 18 16 16 18 17 14 13 14 16 14 13 13 14 14 13 14 14
2 2 2 1 2 4 4 5 6 7 8 8 9 10 10 8 8 10 9 9 9 11 14 12 15 16 14 13 13 13 15 16 16 13 14 14 16 15 14 14 15 14 14 14 14
3 3 2 2 3 4 5 6 8 7 10 7 8 8 7 7 10 10 8 12 12 14 13 14 16 12 11 11 12 14 15 15 14 12 13 15 16 15 14 14 14 15 15 15 14
3 3 2 3 4 5 6 6 6 8 12 9 7 8 6 6 9 10 10 11 13 14 14 15 13 11 12 13 13 14 15 15 15 14 14 15 17 15 14 13 13 14 14 14 15
3 2 2 3 6 7 7 6 6 7 16 13 10 8 7 7 10 7 9 11 12 14 14 14 11 12 13 13 13 16 13 13 14 16 18 15 21 16 15 14 14 14 15 15 14
2 1 2 2 7 7 5 5 5 7 23 11 9 5 7 9 10 9 8 10 13 14 13 14 12 12 13 13 12 14 12 13 14 16 18 17 19 18 15 16 15 15 15 15 15
1 1 2 4 5 5 5 4 5 15 21 12 9 10 10 9 10 11 10 10 10 12 12 13 11 12 12 11 12 11 13 13 14 16 21 16 17 20 18 16 15 14 15 13 13
1 1 1 2 5 4 3 6 14 20 12 13 12 10 11 11 10 11 12 13 14 16 16 13 12 12 11 14 12 13 15 20 20 20 20 14 17 18 16 15 15 15 15 14 13
1 1 1 1 1 3 4 11 20 15 13 9 10 10 12 11 11 11 12 14 12 13 15 17 18 13 12 12 14 15 15 18 20 21 19 15 19 18 14 13 13 13 13 13 13
1 2 2 2 1 3 7 16 17 14 11 11 10 12 13 11 12 12 13 13 11 11 15 15 15 11 11 11 11 14 16 12 16 16 19 19 17 14 13 14 13 13 14 15 13
5 4 4 1 1 4 9 13 13 10 9 9 13 11 13 12 13 14 13 11 11 10 9 11 15 11 11 11 12 12 11 16 16 20 21 19 19 19 15 14 13 16 15 15 14
4 8 5 1 2 7 13 13 11 8 8 10 11 12 11 12 12 14 12 10 9 10 9 10 13 14 12 14 15 14 15 14 14 17 20 21 21 16 14 14 14 15 17 16 16
5 11 4 2 9 9 12 11 8 9 7 8 8 10 11 11 12 12 12 10 8 9 11 11 12 15 14 11 11 12 13 13 17 17 16 20 22 13 14 13 13 14 15 17 15
7 8 3 4 13 12 10 10 9 9 8 8 9 8 8 11 14 11 11 8 8 9 10 10 13 17 15 13 12 13 12 12 13 15 17 20 21 12 12 13 12 16 15 14 15
6 11 7 7 9 11 11 11 11 7 8 7 8 8 10 11 10 12 11 8 7 8 6 7 11 13 17 15 13 14 13 12 13 16 17 18 20 13 13 15 14 14 14 16 17
7 9 8 11 11 10 9 10 11 11 8 7 9 9 10 12 12 12 10 10 8 7 7 9 14 12 11 11 11 12 12 13 14 13 15 16 15 14 13 14 16 16 14 15 15
10 10 8 9 8 9 9 11 12 11 10 10 10 9 9 12 11 12 11 11 11 9 10 8 14 12 13 11 11 13 13 13 12 12 13 14 14 12 11 12 13 13 14 15 15
5 5 7 10 10 10 10 11 11 10 9 8 8 9 10 9 7 7 8 8 8 10 11 11 12 14 16 12 13 16 14 13 12 12 12 14 13 12 13 13 14 14 14 14 14

GFSSW_con_lsi_150.txt.gz
Lid_Strength_Index
2 2 3 3 3 3 4 4 4 5 5 4 4 5 4 4 4 9 12 8 8 2 3 9 10 10 12 13 13 14 16 17 16 15 15 13 13 12 11 12 11 9 11 10 9
2 2 2 2 3 3 3 4 4 4 5 5 4 4 4 3 7 9 5 2 3 2 9 10 11 11 13 14 14 15 17 16 14 14 14 13 14 13 13 14 12 10 10 10 10
1 1 2 2 2 3 4 4 4 4 5 5 5 4 4 4 11 10 2 2 2 4 10 10 10 12 14 15 15 16 16 15 14 14 15 15 14 13 15 14 12 12 12 11 11
2 2 1 2 2 2 3 4 4 5 5 5 5 4 3 7 15 10 2 2 2 7 10 11 11 13 15 16 14 16 14 14 14 13 14 15 14 13 14 13 11 12 12 12 13
2 2 1 2 2 2 4 4 5 5 5 5 5 4 7 13 12 8 2 4 9 9 11 11 12 13 15 15 14 16 15 13 13 13 14 12 13 13 13 11 11 12 13 13 13
2 2 2 2 2 2 3 4 5 5 5 5 4 4 12 12 10 9 9 9 10 11 11 11 12 12 13 14 15 13 14 14 13 14 13 13 13 13 13 11 12 12 14 13 13
2 2 2 2 2 3 3 4 5 5 5 5 4 6 13 11 9 10 9 10 10 10 11 10 10 12 13 14 12 13 15 14 15 14 14 12 14 15 12 12 14 13 13 13 13
3 2 2 2 2 2 2 3 4 4 3 4 4 8 14 9 8 8 10 10 9 9 9 9 10 12 13 13 13 15 16 18 15 14 14 14 17 13 12 13 14 13 13 13 13
4 4 3 2 1 2 2 3 3 3 3 3 7 10 11 6 9 9 9 10 9 9 9 8 10 13 13 16 18 16 19 17 15 14 14 14 16 13 13 13 14 14 14 13 13
4 4 3 3 2 2 3 3 3 4 4 4 5 9 7 8 9 9 10 9 10 10 10 11 13 15 16 18 20 18 17 18 18 16 14 16 16 15 14 14 14 14 14 14 14
4 4 3 2 2 3 4 6 7 8 9 7 8 9 10 7 8 11 10 10 11 12 15 13 15 16 14 15 14 15 17 17 17 14 14 15 16 15 15 14 15 14 14 14 15
3 2 1 2 2 3 4 8 9 9 11 7 8 9 7 7 10 10 9 12 12 15 14 15 17 13 12 12 13 14 16 16 15 13 14 16 18 16 15 15 15 15 15 15 15
2 2 2 2 3 6 6 8 7 7 12 10 7 8 7 7 9 9 9 11 13 15 15 17 15 12 12 14 14 15 16 16 15 14 14 15 17 16 14 14 14 14 15 14 15
2 2 2 3 7 9 9 7 8 8 17 14 11 9 7 6 9 6 9 10 12 14 14 16 13 14 14 14 13 16 13 13 15 16 19 16 21 17 16 15 15 15 16 16 15
2 2 2 3 8 9 7 7 7 9 25 13 10 6 7 8 9 8 8 10 12 13 13 15 13 14 15 14 12 14 12 13 14 17 18 17 19 19 15 17 16 16 15 16 15
2 2 4 6 8 7 7 6 7 18 24 14 10 10 10 9 9 10 9 10 10 13 14 13 12 13 13 11 11 11 12 13 15 17 21 17 17 20 18 16 16 15 15 15 15
2 2 3 4 7 6 6 8 16 23 14 15 12 10 10 11 9 11 12 13 14 16 17 14 13 13 12 14 12 13 15 19 19 20 21 16 17 19 16 15 15 15 16 16 15
1 1 2 3 5 6 7 12 22 16 15 10 10 10 12 11 10 10 13 14 12 13 15 16 18 13 11 12 13 13 14 18 21 21 20 15 19 18 14 13 14 15 16 16 16
2 3 3 3 3 5 9 20 19 15 12 12 12 14 13 11 11 12 13 13 12 11 15 15 15 11 11 11 11 14 16 13 16 17 20 19 18 15 14 15 15 15 16 17 17
5 5 6 2 3 6 11 14 14 11 10 11 15 13 15 13 13 14 13 11 11 10 10 12 15 11 10 10 11 12 11 15 16 20 21 20 20 19 17 16 15 18 18 17 16
6 9 6 1 2 7 13 14 12 9 9 11 12 12 12 13 12 14 13 10 9 10 10 10 12 13 11 12 14 13 14 13 14 16 19 21 21 17 15 15 15 16 17 17 18
6 11 6 2 9 9 12 11 8 10 9 10 10 10 11 11 13 12 13 10 8 9 11 10 12 15 13 9 10 11 12 13 16 17 17 18 21 14 14 14 14 15 15 17 17
7 7 3 3 13 12 10 11 10 11 11 11 11 9 9 11 13 11 10 8 8 9 10 9 13 16 15 13 11 12 12 12 13 14 17 20 19 14 14 15 13 15 15 15 16
7 11 7 6 8 12 12 13 12 9 10 9 10 9 10 11 9 11 11 8 8 8 7 7 12 14 17 15 12 13 12 11 12 16 16 18 19 15 15 14 13 14 15 17 18
6 9 9 12 11 10 11 12 13 13 10 9 11 10 11 13 11 12 10 9 9 7 8 9 14 12 12 10 11 12 12 12 13 13 15 14 16 14 13 13 15 16 15 15 15
9 9 7 9 9 10 10 12 13 11 10 11 12 11 11 12 10 12 10 10 11 9 10 9 14 12 14 11 11 13 12 11 12 13 14 15 14 12 11 12 14 14 14 15 15
4 4 7 9 9 10 11 10 11 9 9 9 10 10 11 9 7 7 7 8 8 10 11 11 12 14 16 12 14 16 13 12 12 12 13 15 12 12 12 13 13 14 14 14 15

GFSSW_con_lsi_153.txt.gz
Lid_Strength_Index
2 2 2 2 3 3 3 4 4 4 4 4 4 4 4 3 3 7 10 6 6 2 3 7 7 8 9 10 10 10 11 12 11 12 11 10 10 10 9 9 10 9 10 9 9
2 2 2 2 2 3 3 4 4 4 4 4 4 4 4 4 7 9 4 3 3 3 8 8 9 9 10 10 10 10 11 12 11 11 11 10 10 11 11 11 10 10 10 9 10
1 1 2 2 2 2 3 4 4 4 4 4 4 4 4 4 10 9 3 2 2 4 8 8 8 10 11 11 11 12 12 11 11 10 10 11 11 10 11 12 12 12 12 11 11
1 1 1 2 2 2 3 4 4 4 4 4 4 3 4 7 12 8 2 2 2 6 8 8 9 10 12 12 11 12 12 11 11 10 11 11 10 12 11 12 11 11 11 11 12
1 1 1 1 1 2 3 4 4 4 4 5 4 4 7 10 10 8 3 5 7 8 9 9 10 10 12 12 11 12 11 11 10 11 11 10 11 12 12 11 11 12 12 12 12
1 1 1 1 1 2 3 4 4 4 4 5 5 4 10 8 8 9 8 8 8 8 9 9 10 10 11 12 12 11 11 11 11 11 10 11 12 11 12 11 12 12 13 12 12
2 2 2 2 2 2 2 3 4 4 5 4 4 7 11 6 8 8 9 8 8 8 9 8 8 10 10 12 11 11 12 12 12 11 12 10 13 14 12 11 12 12 12 12 12
3 3 2 2 2 2 2 3 4 4 4 4 4 8 8 7 7 7 8 8 7 8 8 8 8 9 11 10 11 12 12 14 12 12 12 12 15 13 11 12 13 13 12 12 12
4 4 4 3 3 3 3 3 4 4 3 4 6 8 7 3 7 7 8 9 8 8 8 7 8 11 10 13 14 14 15 15 13 12 12 12 14 13 11 11 12 12 12 12 12
4 4 4 4 3 3 3 4 4 4 4 4 6 8 6 7 7 7 8 8 10 9 10 9 11 12 12 14 16 16 15 14 13 12 11 12 14 13 12 12 13 13 12 12 12
5 5 4 3 3 3 4 5 6 7 8 7 7 7 8 7 6 8 7 8 9 11 13 12 14 15 14 12 12 13 14 14 13 12 12 13 13 13 12 12 13 13 13 12 12
5 4 3 3 3 4 4 6 6 7 10 6 7 8 7 6 7 8 7 10 10 12 12 13 15 12 12 12 13 12 13 13 12 12 12 13 13 12 12 12 12 13 13 13 12
4 3 3 3 3 5 5 5 6 7 10 10 7 7 6 6 7 7 8 10 11 13 13 13 12 12 12 13 13 13 13 14 13 12 12 13 14 13 12 12 12 12 12 12 13
3 2 3 3 5 6 6 5 6 5 15 14 11 8 6 6 8 5 8 9 11 12 12 13 12 13 13 14 13 15 12 12 13 13 15 12 15 14 13 13 13 13 13 13 13
2 1 2 3 7 7 6 6 5 8 21 13 10 6 7 8 9 9 7 9 10 12 11 11 12 13 13 13 12 13 11 12 12 13 14 14 15 14 13 14 13 13 13 13 13
2 2 3 5 6 6 6 5 7 16 21 13 9 9 9 8 8 9 9 8 8 10 11 11 9 10 11 11 11 10 11 12 12 13 16 14 14 13 14 13 13 13 13 14 13
2 2 3 5 7 6 6 8 16 20 14 14 12 10 10 10 9 10 10 11 11 14 14 12 11 10 9 11 10 10 13 17 18 18 18 14 15 13 13 13 12 13 14 14 13
2 3 4 4 6 6 7 13 21 17 15 11 10 10 11 10 10 9 12 12 10 11 13 14 14 11 9 10 11 11 11 15 18 19 17 14 16 15 13 13 13 13 14 14 14
3 4 5 5 5 6 9 16 18 16 13 12 12 13 13 11 10 10 11 12 10 9 12 13 14 9 9 8 9 11 13 10 14 14 16 14 15 14 14 14 14 15 15 15 15
6 6 6 4 4 5 9 14 13 12 10 10 14 13 14 12 12 11 11 10 10 9 7 10 13 9 8 8 8 9 9 13 13 20 20 16 15 14 15 15 14 15 15 16 15
6 9 6 3 3 7 13 13 12 9 8 10 11 13 12 12 11 12 12 10 9 8 8 8 10 11 9 10 11 10 11 11 11 13 17 18 16 13 13 13 14 14 15 15 16
7 12 6 3 9 10 13 11 8 9 8 9 9 10 10 10 11 12 12 9 7 8 10 9 10 13 11 9 8 9 10 10 15 16 14 15 16 12 12 12 12 14 15 15 15
10 10 5 5 14 13 10 10 9 10 10 10 10 9 9 10 13 10 10 7 6 7 8 8 11 15 14 10 9 11 10 9 11 12 16 18 16 12 12 13 13 14 14 14 15
8 12 9 7 7 11 11 11 11 8 9 9 10 9 10 11 10 12 11 8 6 7 6 6 10 13 16 13 11 12 11 10 11 16 16 15 14 14 14 13 13 14 13 14 14
6 11 9 12 11 9 10 11 12 12 9 8 10 10 11 13 12 12 10 9 7 6 7 8 12 11 11 10 10 11 11 11 13 13 16 13 13 12 12 13 13 13 14 13 13
9 8 8 9 8 10 10 12 12 11 10 11 11 10 10 12 11 12 11 10 10 8 9 8 12 11 13 10 11 14 11 11 11 12 13 13 12 11 10 11 13 12 12 13 14
4 4 6 9 9 10 11 11 10 9 9 9 9 10 10 10 8 8 8 8 7 9 10 10 12 14 16 12 13 16 13 12 11 10 11 14 10 12 12 12 12 12 12 13 13

GFSSW_con_lsi_156.txt.gz
Lid_Strength_Index
2 2 2 3 3 3 3 3 3 3 3 3 3 3 3 3 3 6 7 6 6 2 3 5 6 6 6 6 6 6 7 8 8 8 9 8 8 7 6 7 8 8 8 8 7
1 2 2 2 2 2 3 3 3 3 3 3 3 3 3 3 6 7 4 3 3 2 6 6 7 7 7 8 6 7 8 8 7 7 8 8 8 8 8 8 8 8 8 7 7
1 1 1 2 2 3 3 3 3 3 3 3 3 3 3 3 7 8 3 3 3 3 5 6 6 7 8 8 8 8 9 8 8 8 8 8 8 8 8 9 9 9 9 8 8
1 1 1 1 2 2 3 3 3 3 3 3 4 4 4 5 8 7 3 3 2 5 6 7 7 8 9 9 8 10 9 8 8 8 8 9 8 9 8 9 8 9 9 9 9
1 1 1 1 1 1 2 3 3 3 4 3 3 4 4 4 5 6 3 3 6 6 7 7 8 8 9 9 9 10 9 9 8 8 8 8 9 9 10 9 9 9 9 9 9
2 2 1 1 1 1 2 2 3 3 4 3 3 4 4 6 5 6 6 6 7 7 7 7 8 8 9 9 9 9 9 8 8 8 8 9 9 9 10 9 10 9 9 9 9
2 2 2 2 2 2 2 3 3 3 4 3 4 5 6 5 5 5 6 6 6 7 8 7 6 8 8 10 9 9 10 9 9 9 9 8 10 10 9 9 10 10 9 9 9
3 3 2 2 2 2 2 3 3 3 3 3 4 5 6 3 3 4 5 6 6 6 6 6 6 8 8 8 9 10 10 11 9 9 9 9 11 10 9 9 10 10 10 10 10
4 4 4 3 3 3 3 3 3 3 3 4 4 5 6 1 5 5 5 7 6 6 6 6 7 9 9 11 11 10 11 11 11 9 10 9 10 9 8 9 10 10 9 9 9
4 5 4 4 3 3 3 3 4 4 4 4 4 5 4 6 6 6 5 5 7 7 8 8 8 9 10 11 13 12 12 11 11 10 10 10 10 10 9 9 9 9 9 9 9
5 5 4 4 3 3 3 2 5 5 5 7 6 6 6 6 5 6 5 6 6 7 9 9 10 10 10 11 12 12 11 11 10 10 10 10 10 10 9 9 9 8 8 9 9
5 5 4 4 3 4 3 5 5 5 9 6 6 5 4 5 6 5 6 8 8 9 9 9 9 7 10 11 11 12 12 12 9 9 10 10 10 9 10 9 8 8 8 8 9
5 5 4 4 4 4 4 5 4 5 9 9 7 7 6 5 7 7 7 7 8 9 8 9 8 9 9 8 10 10 11 11 11 10 9 9 10 10 9 9 9 9 8 9 9
5 4 4 4 5 4 5 3 4 4 11 12 10 7 6 5 8 4 4 7 9 9 8 8 8 9 9 9 8 10 8 10 11 11 13 10 13 10 9 10 10 9 9 8 9
4 3 3 4 4 5 5 3 3 4 17 11 9 4 5 7 7 8 5 7 9 9 9 10 10 11 11 10 9 9 9 9 9 11 11 11 13 10 9 11 9 8 8 9 9
3 2 3 4 3 4 3 3 3 11 18 11 8 8 8 7 8 7 6 6 7 7 7 8 6 8 8 7 8 8 10 9 10 10 14 11 11 12 10 10 8 8 9 10 10
2 2 3 3 5 3 2 5 12 16 12 12 10 9 9 9 8 9 8 8 9 11 11 9 8 7 6 8 7 8 10 14 15 15 16 10 12 11 10 10 9 9 10 11 11
2 3 3 3 3 3 4 9 17 15 14 10 10 9 10 9 9 8 9 10 7 8 10 12 13 9 8 8 9 9 9 14 17 16 14 10 14 10 10 10 9 9 10 11 11
2 2 3 2 3 3 7 14 15 15 12 11 10 10 10 9 9 9 9 10 9 7 10 11 12 7 7 7 7 9 11 8 12 12 15 12 10 10 10 10 10 11 11 12 11
3 4 5 2 2 4 8 14 13 12 11 11 12 11 13 12 11 10 11 8 8 6 5 8 12 8 7 6 6 7 7 12 11 19 19 14 12 12 11 10 11 11 11 12 11
4 7 5 2 2 6 12 12 12 10 9 10 11 12 11 12 11 11 11 8 7 7 6 7 9 10 8 9 9 9 10 9 10 13 17 18 14 10 10 8 10 11 12 12 13
6 10 4 2 8 8 12 11 9 9 8 9 9 9 10 10 10 10 10 9 6 6 8 7 9 12 10 7 6 7 9 9 14 16 13 14 16 8 8 7 8 9 12 12 12
7 8 3 3 12 11 10 10 9 9 9 9 9 8 8 9 11 10 9 7 6 7 8 7 10 13 12 9 7 9 8 8 9 10 14 17 15 8 8 8 8 10 12 12 13
7 12 8 6 6 9 10 11 11 8 8 7 8 8 9 10 8 10 10 8 7 7 5 6 9 11 14 11 9 11 9 8 10 15 15 14 15 12 11 11 10 11 11 12 12
6 9 8 12 11 9 9 10 11 10 8 7 9 9 10 11 10 10 8 8 7 6 6 7 11 10 9 9 9 9 9 9 11 11 15 13 13 11 10 10 11 11 11 12 12
9 8 7 9 8 9 10 11 11 9 9 9 9 8 8 10 9 10 9 9 9 7 7 6 11 9 11 9 9 11 10 9 9 10 11 11 12 7 7 7 10 11 12 12 12
2 2 4 7 7 9 9 9 9 7 7 7 7 8 9 7 6 6 6 7 7 8 9 9 11 12 14 10 11 15 13 11 10 9 9 13 10 8 9 9 10 10 11 11 11

GFSSW_con_lsi_159.txt.gz
Lid_Strength_Index
2 2 2 2 3 3 2 3 3 3 2 3 3 3 3 3 3 3 6 6 6 2 2 5 5 5 5 5 5 4 7 8 7 7 7 6 7 6 5 6 6 6 5 5 7
1 1 2 2 2 3 2 3 3 2 2 3 3 2 3 3 3 5 5 3 2 1 5 6 7 6 6 6 5 7 7 7 5 5 7 7 6 6 6 6 7 7 6 5 6
1 1 1 2 2 2 2 3 3 2 3 3 2 2 3 4 4 6 3 3 2 3 5 5 5 6 7 6 6 6 8 7 6 6 6 7 7 6 6 7 7 7 7 6 6
1 1 1 1 1 1 2 3 2 2 2 2 2 2 3 2 8 5 2 3 2 4 5 5 5 6 8 8 7 9 7 7 7 7 7 7 6 7 6 7 6 7 7 6 7
2 1 1 1 1 1 2 2 2 2 2 2 2 2 2 3 4 5 3 3 5 5 6 6 6 6 7 7 7 8 7 7 7 7 7 7 7 7 8 7 7 7 7 7 7
2 2 2 1 1 1 1 2 2 3 3 3 3 3 3 7 2 3 5 5 5 5 6 6 6 6 7 7 7 7 7 7 7 7 7 8 8 7 7 7 8 7 7 7 7
2 2 2 2 1 1 1 2 3 3 3 3 3 2 5 6 2 2 3 4 5 5 6 6 6 6 6 7 7 7 9 7 7 7 8 7 9 8 7 7 8 8 7 7 7
2 2 2 2 2 2 2 2 3 3 3 3 3 2 6 2 1 2 1 3 4 4 5 5 5 6 7 6 7 8 8 10 6 7 7 8 10 7 7 8 8 8 8 8 8
4 4 3 2 2 3 3 3 3 3 3 3 3 3 7 2 3 3 3 4 4 4 4 5 5 7 8 9 9 8 10 9 9 7 8 9 9 8 7 8 8 7 7 7 8
5 5 5 4 3 3 3 3 3 3 2 2 3 6 4 6 4 4 3 4 4 5 5 6 6 7 8 9 11 10 10 9 9 8 8 9 9 8 7 8 8 8 7 7 7
5 5 5 4 4 3 3 2 4 4 4 6 6 6 6 5 4 5 4 4 5 5 7 6 7 8 7 7 8 10 10 10 8 8 9 9 9 8 8 8 8 8 7 7 7
5 5 5 4 4 3 2 5 5 4 9 6 6 6 5 4 6 5 5 7 7 8 6 7 9 6 6 7 8 8 10 10 8 7 9 9 9 7 8 8 7 7 7 6 6
5 5 4 4 4 4 3 4 3 4 9 8 7 7 7 6 7 7 5 6 8 8 7 9 7 7 8 7 8 8 9 9 9 7 8 9 10 8 7 7 7 6 6 6 7
5 4 4 4 6 4 5 3 3 3 11 10 10 7 6 6 8 5 4 6 8 9 8 8 7 8 8 8 7 10 7 7 8 9 12 7 12 8 7 9 8 7 6 6 6
4 4 4 4 4 6 4 3 3 4 16 11 9 4 5 7 7 7 3 5 9 8 8 10 9 9 10 9 7 9 7 8 8 9 9 10 11 9 7 9 8 7 7 7 6
4 4 4 4 4 4 3 2 3 10 17 11 8 8 8 6 7 6 6 5 6 8 8 8 6 7 7 7 7 7 8 8 8 9 15 10 11 11 9 8 7 7 7 7 7
3 3 4 3 6 3 2 4 11 14 11 11 10 8 7 8 8 8 8 9 10 11 11 9 8 6 6 8 6 7 9 14 14 15 15 9 11 10 8 7 6 6 6 7 8
3 3 3 3 3 2 3 8 15 13 12 9 9 8 10 9 9 9 10 11 8 9 10 12 12 9 7 8 9 8 9 13 17 15 13 9 12 10 7 7 6 5 7 7 8
2 2 2 2 2 2 6 13 14 12 11 11 9 11 11 10 11 11 10 10 9 8 11 11 11 7 8 7 7 9 10 7 11 11 13 11 9 8 7 8 7 7 8 8 8
3 4 4 0 1 3 8 12 12 11 10 10 12 11 12 11 12 11 11 9 9 7 6 8 11 7 7 6 6 7 6 11 10 16 17 13 12 11 10 9 9 9 9 9 9
3 7 3 0 1 6 11 11 11 10 9 11 11 12 12 12 11 11 11 9 7 8 6 7 8 9 7 8 9 8 9 9 9 11 15 17 14 8 9 7 8 9 9 9 9
4 9 2 1 8 7 10 10 10 10 8 9 9 10 11 10 10 10 10 9 7 6 8 6 8 11 10 6 6 7 8 9 13 13 12 14 16 7 7 7 6 7 9 8 9
6 8 3 2 11 10 9 9 9 10 9 10 10 9 8 9 11 9 8 6 6 6 8 6 9 13 11 9 7 9 8 8 8 9 12 17 15 7 7 7 6 6 8 9 11
6 11 6 5 6 8 9 10 10 8 9 8 8 7 8 9 8 10 8 7 6 6 5 7 9 11 14 11 9 10 9 8 9 13 13 14 14 13 11 10 7 6 8 9 11
5 8 7 10 9 8 8 9 10 10 8 7 8 8 8 10 9 9 7 7 6 5 6 7 11 9 9 9 9 9 9 9 10 9 12 11 11 9 10 10 9 9 9 11 11
8 7 6 8 8 8 8 9 9 8 8 9 9 7 7 9 8 9 8 8 8 6 7 6 11 9 11 9 9 10 9 9 9 9 9 9 10 6 7 7 8 9 11 11 11
2 3 6 8 9 8 8 8 8 8 7 6 6 7 7 6 5 5 5 6 6 8 8 8 10 12 15 10 10 14 11 9 9 8 8 11 8 6 7 7 7 8 10 10 10